Year,Month,Day,Hour,Minute,Value (Times are PST for temperature in C)
2018,04,26,00,00,10.10
2018,04,26,00,01,10.10
2018,04,26,00,02,10.10
2018,04,26,00,03,10.10
2018,04,26,00,04,10.10
2018,04,26,00,05,10.10
2018,04,26,00,06,10.10
2018,04,26,00,07,10.00
2018,04,26,00,08,9.90
2018,04,26,00,09,9.90
2018,04,26,00,10,9.90
2018,04,26,00,11,9.90
2018,04,26,00,12,9.90
2018,04,26,00,13,9.90
2018,04,26,00,14,9.90
2018,04,26,00,15,9.90
2018,04,26,00,16,9.90
2018,04,26,00,17,9.90
2018,04,26,00,18,9.80
2018,04,26,00,19,9.80
2018,04,26,00,20,9.80
2018,04,26,00,21,9.80
2018,04,26,00,22,9.80
2018,04,26,00,23,9.70
2018,04,26,00,24,9.70
2018,04,26,00,25,9.70
2018,04,26,00,26,9.70
2018,04,26,00,27,9.70
2018,04,26,00,28,9.70
2018,04,26,00,29,9.60
2018,04,26,00,30,9.60
2018,04,26,00,31,9.60
2018,04,26,00,32,9.60
2018,04,26,00,33,9.50
2018,04,26,00,34,9.50
2018,04,26,00,35,9.50
2018,04,26,00,36,9.50
2018,04,26,00,37,9.40
2018,04,26,00,38,9.40
2018,04,26,00,39,9.40
2018,04,26,00,40,9.30
2018,04,26,00,41,9.30
2018,04,26,00,42,9.30
2018,04,26,00,43,9.30
2018,04,26,00,44,9.30
2018,04,26,00,45,9.20
2018,04,26,00,46,9.20
2018,04,26,00,47,9.20
2018,04,26,00,48,9.20
2018,04,26,00,49,9.20
2018,04,26,00,50,9.20
2018,04,26,00,51,9.20
2018,04,26,00,52,9.10
2018,04,26,00,53,9.10
2018,04,26,00,54,9.10
2018,04,26,00,55,9.10
2018,04,26,00,56,9.00
2018,04,26,00,57,9.00
2018,04,26,00,58,9.00
2018,04,26,00,59,9.00
2018,04,26,01,00,9.00
2018,04,26,01,01,9.00
2018,04,26,01,02,8.90
2018,04,26,01,03,8.90
2018,04,26,01,04,8.90
2018,04,26,01,05,8.90
2018,04,26,01,06,8.90
2018,04,26,01,07,8.90
2018,04,26,01,08,8.90
2018,04,26,01,09,8.80
2018,04,26,01,10,8.80
2018,04,26,01,11,8.80
2018,04,26,01,12,8.80
2018,04,26,01,13,8.80
2018,04,26,01,14,8.80
2018,04,26,01,15,8.80
2018,04,26,01,16,8.80
2018,04,26,01,17,8.80
2018,04,26,01,18,8.70
2018,04,26,01,19,8.70
2018,04,26,01,20,8.70
2018,04,26,01,21,8.70
2018,04,26,01,22,8.70
2018,04,26,01,23,8.70
2018,04,26,01,24,8.70
2018,04,26,01,25,8.70
2018,04,26,01,26,8.70
2018,04,26,01,27,8.70
2018,04,26,01,28,8.70
2018,04,26,01,29,8.70
2018,04,26,01,30,8.70
2018,04,26,01,31,8.70
2018,04,26,01,32,8.70
2018,04,26,01,33,8.70
2018,04,26,01,34,8.70
2018,04,26,01,35,8.70
2018,04,26,01,36,8.70
2018,04,26,01,37,8.70
2018,04,26,01,38,8.60
2018,04,26,01,39,8.60
2018,04,26,01,40,8.60
2018,04,26,01,41,8.60
2018,04,26,01,42,8.60
2018,04,26,01,43,8.60
2018,04,26,01,44,8.60
2018,04,26,01,45,8.60
2018,04,26,01,46,8.50
2018,04,26,01,47,8.50
2018,04,26,01,48,8.50
2018,04,26,01,49,8.50
2018,04,26,01,50,8.50
2018,04,26,01,51,8.50
2018,04,26,01,52,8.40
2018,04,26,01,53,8.40
2018,04,26,01,54,8.40
2018,04,26,01,55,8.40
2018,04,26,01,56,8.30
2018,04,26,01,57,8.30
2018,04,26,01,58,8.30
2018,04,26,01,59,8.30
2018,04,26,02,00,8.20
2018,04,26,02,01,8.20
2018,04,26,02,02,8.20
2018,04,26,02,03,8.20
2018,04,26,02,04,8.20
2018,04,26,02,05,8.20
2018,04,26,02,06,8.20
2018,04,26,02,07,8.20
2018,04,26,02,08,8.20
2018,04,26,02,09,8.10
2018,04,26,02,10,8.10
2018,04,26,02,11,8.10
2018,04,26,02,12,8.10
2018,04,26,02,13,8.10
2018,04,26,02,14,8.10
2018,04,26,02,15,8.10
2018,04,26,02,16,8.10
2018,04,26,02,17,8.00
2018,04,26,02,18,8.00
2018,04,26,02,19,8.00
2018,04,26,02,20,8.00
2018,04,26,02,21,8.00
2018,04,26,02,22,8.00
2018,04,26,02,23,8.00
2018,04,26,02,24,8.00
2018,04,26,02,25,8.00
2018,04,26,02,26,7.90
2018,04,26,02,27,7.90
2018,04,26,02,28,7.90
2018,04,26,02,29,7.90
2018,04,26,02,30,7.90
2018,04,26,02,31,7.90
2018,04,26,02,32,7.90
2018,04,26,02,33,7.90
2018,04,26,02,34,7.90
2018,04,26,02,35,7.80
2018,04,26,02,36,7.80
2018,04,26,02,37,7.80
2018,04,26,02,38,7.80
2018,04,26,02,39,7.80
2018,04,26,02,40,7.80
2018,04,26,02,41,7.80
2018,04,26,02,42,7.80
2018,04,26,02,43,7.80
2018,04,26,02,44,7.80
2018,04,26,02,45,7.80
2018,04,26,02,46,7.80
2018,04,26,02,47,7.80
2018,04,26,02,48,7.80
2018,04,26,02,49,7.80
2018,04,26,02,50,7.70
2018,04,26,02,51,7.70
2018,04,26,02,52,7.70
2018,04,26,02,53,7.70
2018,04,26,02,54,7.70
2018,04,26,02,55,7.70
2018,04,26,02,56,7.70
2018,04,26,02,57,7.60
2018,04,26,02,58,7.60
2018,04,26,02,59,7.60
2018,04,26,03,00,7.60
2018,04,26,03,01,7.60
2018,04,26,03,02,7.60
2018,04,26,03,03,7.60
2018,04,26,03,04,7.60
2018,04,26,03,05,7.60
2018,04,26,03,06,7.60
2018,04,26,03,07,7.50
2018,04,26,03,08,7.50
2018,04,26,03,09,7.50
2018,04,26,03,10,7.50
2018,04,26,03,11,7.50
2018,04,26,03,12,7.50
2018,04,26,03,13,7.50
2018,04,26,03,14,7.40
2018,04,26,03,15,7.40
2018,04,26,03,16,7.40
2018,04,26,03,17,7.40
2018,04,26,03,18,7.40
2018,04,26,03,19,7.40
2018,04,26,03,20,7.40
2018,04,26,03,21,7.40
2018,04,26,03,22,7.40
2018,04,26,03,23,7.40
2018,04,26,03,24,7.40
2018,04,26,03,25,7.40
2018,04,26,03,26,7.40
2018,04,26,03,27,7.40
2018,04,26,03,28,7.40
2018,04,26,03,29,7.40
2018,04,26,03,30,7.40
2018,04,26,03,31,7.40
2018,04,26,03,32,7.30
2018,04,26,03,33,7.30
2018,04,26,03,34,7.30
2018,04,26,03,35,7.30
2018,04,26,03,36,7.30
2018,04,26,03,37,7.30
2018,04,26,03,38,7.30
2018,04,26,03,39,7.30
2018,04,26,03,40,7.30
2018,04,26,03,41,7.30
2018,04,26,03,42,7.30
2018,04,26,03,43,7.30
2018,04,26,03,44,7.30
2018,04,26,03,45,7.30
2018,04,26,03,46,7.20
2018,04,26,03,47,7.20
2018,04,26,03,48,7.20
2018,04,26,03,49,7.20
2018,04,26,03,50,7.20
2018,04,26,03,51,7.10
2018,04,26,03,52,7.10
2018,04,26,03,53,7.10
2018,04,26,03,54,7.10
2018,04,26,03,55,7.10
2018,04,26,03,56,7.10
2018,04,26,03,57,7.10
2018,04,26,03,58,7.00
2018,04,26,03,59,7.00
2018,04,26,04,00,7.00
2018,04,26,04,01,7.00
2018,04,26,04,02,7.00
2018,04,26,04,03,7.00
2018,04,26,04,04,7.00
2018,04,26,04,05,7.00
2018,04,26,04,06,7.00
2018,04,26,04,07,7.00
2018,04,26,04,08,7.00
2018,04,26,04,09,7.00
2018,04,26,04,10,7.00
2018,04,26,04,11,7.00
2018,04,26,04,12,7.00
2018,04,26,04,13,7.00
2018,04,26,04,14,7.00
2018,04,26,04,15,7.00
2018,04,26,04,16,7.00
2018,04,26,04,17,6.90
2018,04,26,04,18,6.90
2018,04,26,04,19,6.90
2018,04,26,04,20,6.90
2018,04,26,04,21,6.90
2018,04,26,04,22,6.90
2018,04,26,04,23,6.90
2018,04,26,04,24,6.90
2018,04,26,04,25,6.90
2018,04,26,04,26,6.90
2018,04,26,04,27,6.90
2018,04,26,04,28,6.90
2018,04,26,04,29,6.90
2018,04,26,04,30,7.00
2018,04,26,04,31,7.00
2018,04,26,04,32,7.00
2018,04,26,04,33,7.00
2018,04,26,04,34,7.00
2018,04,26,04,35,7.00
2018,04,26,04,36,7.00
2018,04,26,04,37,7.00
2018,04,26,04,38,7.00
2018,04,26,04,39,7.00
2018,04,26,04,40,7.00
2018,04,26,04,41,7.00
2018,04,26,04,42,7.10
2018,04,26,04,43,7.10
2018,04,26,04,44,7.10
2018,04,26,04,45,7.10
2018,04,26,04,46,7.10
2018,04,26,04,47,7.10
2018,04,26,04,48,7.10
2018,04,26,04,49,7.10
2018,04,26,04,50,7.10
2018,04,26,04,51,7.10
2018,04,26,04,52,7.10
2018,04,26,04,53,7.20
2018,04,26,04,54,7.20
2018,04,26,04,55,7.20
2018,04,26,04,56,7.20
2018,04,26,04,57,7.20
2018,04,26,04,58,7.20
2018,04,26,04,59,7.20
2018,04,26,05,00,7.20
2018,04,26,05,01,7.20
2018,04,26,05,02,7.20
2018,04,26,05,03,7.20
2018,04,26,05,04,7.20
2018,04,26,05,05,7.20
2018,04,26,05,06,7.20
2018,04,26,05,07,7.20
2018,04,26,05,08,7.20
2018,04,26,05,09,7.20
2018,04,26,05,10,7.20
2018,04,26,05,11,7.20
2018,04,26,05,12,7.30
2018,04,26,05,13,7.30
2018,04,26,05,14,7.30
2018,04,26,05,15,7.30
2018,04,26,05,16,7.30
2018,04,26,05,17,7.30
2018,04,26,05,18,7.30
2018,04,26,05,19,7.30
2018,04,26,05,20,7.30
2018,04,26,05,21,7.30
2018,04,26,05,22,7.30
2018,04,26,05,23,7.30
2018,04,26,05,24,7.40
2018,04,26,05,25,7.40
2018,04,26,05,26,7.40
2018,04,26,05,27,7.40
2018,04,26,05,28,7.40
2018,04,26,05,29,7.50
2018,04,26,05,30,7.50
2018,04,26,05,31,7.50
2018,04,26,05,32,7.50
2018,04,26,05,33,7.50
2018,04,26,05,34,7.50
2018,04,26,05,35,7.50
2018,04,26,05,36,7.60
2018,04,26,05,37,7.60
2018,04,26,05,38,7.60
2018,04,26,05,39,7.60
2018,04,26,05,40,7.70
2018,04,26,05,41,7.70
2018,04,26,05,42,7.70
2018,04,26,05,43,7.80
2018,04,26,05,44,7.80
2018,04,26,05,45,7.80
2018,04,26,05,46,7.80
2018,04,26,05,47,7.80
2018,04,26,05,48,7.80
2018,04,26,05,49,7.80
2018,04,26,05,50,7.80
2018,04,26,05,51,7.80
2018,04,26,05,52,7.80
2018,04,26,05,53,7.80
2018,04,26,05,54,7.90
2018,04,26,05,55,7.90
2018,04,26,05,56,7.90
2018,04,26,05,57,7.90
2018,04,26,05,58,7.90
2018,04,26,05,59,8.00
2018,04,26,06,00,8.00
2018,04,26,06,01,8.00
2018,04,26,06,02,8.00
2018,04,26,06,03,8.00
2018,04,26,06,04,8.00
2018,04,26,06,05,8.00
2018,04,26,06,06,7.90
2018,04,26,06,07,7.90
2018,04,26,06,08,7.90
2018,04,26,06,09,7.80
2018,04,26,06,10,7.80
2018,04,26,06,11,7.80
2018,04,26,06,12,7.80
2018,04,26,06,13,7.80
2018,04,26,06,14,7.70
2018,04,26,06,15,7.70
2018,04,26,06,16,7.70
2018,04,26,06,17,7.70
2018,04,26,06,18,7.70
2018,04,26,06,19,7.60
2018,04,26,06,20,7.60
2018,04,26,06,21,7.60
2018,04,26,06,22,7.60
2018,04,26,06,23,7.60
2018,04,26,06,24,7.60
2018,04,26,06,25,7.60
2018,04,26,06,26,7.60
2018,04,26,06,27,7.60
2018,04,26,06,28,7.70
2018,04,26,06,29,7.70
2018,04,26,06,30,7.70
2018,04,26,06,31,7.70
2018,04,26,06,32,7.70
2018,04,26,06,33,7.70
2018,04,26,06,34,7.70
2018,04,26,06,35,7.70
2018,04,26,06,36,7.70
2018,04,26,06,37,7.80
2018,04,26,06,38,7.80
2018,04,26,06,39,7.80
2018,04,26,06,40,7.90
2018,04,26,06,41,8.00
2018,04,26,06,42,8.10
2018,04,26,06,43,8.20
2018,04,26,06,44,8.40
2018,04,26,06,45,8.50
2018,04,26,06,46,8.50
2018,04,26,06,47,8.60
2018,04,26,06,48,8.70
2018,04,26,06,49,8.80
2018,04,26,06,50,8.90
2018,04,26,06,51,8.90
2018,04,26,06,52,9.00
2018,04,26,06,53,9.00
2018,04,26,06,54,9.10
2018,04,26,06,55,9.20
2018,04,26,06,56,9.20
2018,04,26,06,57,9.30
2018,04,26,06,58,9.30
2018,04,26,06,59,9.40
2018,04,26,07,00,9.40
2018,04,26,07,01,9.40
2018,04,26,07,02,9.40
2018,04,26,07,03,9.40
2018,04,26,07,04,9.40
2018,04,26,07,05,9.50
2018,04,26,07,06,9.50
2018,04,26,07,07,9.50
2018,04,26,07,08,9.60
2018,04,26,07,09,9.70
2018,04,26,07,10,9.70
2018,04,26,07,11,9.70
2018,04,26,07,12,9.80
2018,04,26,07,13,9.90
2018,04,26,07,14,9.90
2018,04,26,07,15,10.00
2018,04,26,07,16,10.10
2018,04,26,07,17,10.20
2018,04,26,07,18,10.30
2018,04,26,07,19,10.40
2018,04,26,07,20,10.50
2018,04,26,07,21,10.60
2018,04,26,07,22,10.70
2018,04,26,07,23,10.80
2018,04,26,07,24,10.90
2018,04,26,07,25,11.00
2018,04,26,07,26,11.10
2018,04,26,07,27,11.30
2018,04,26,07,28,11.40
2018,04,26,07,29,11.50
2018,04,26,07,30,11.60
2018,04,26,07,31,11.60
2018,04,26,07,32,11.70
2018,04,26,07,33,11.80
2018,04,26,07,34,11.90
2018,04,26,07,35,12.00
2018,04,26,07,36,12.10
2018,04,26,07,37,12.10
2018,04,26,07,38,12.30
2018,04,26,07,39,12.30
2018,04,26,07,40,12.40
2018,04,26,07,41,12.50
2018,04,26,07,42,12.60
2018,04,26,07,43,12.70
2018,04,26,07,44,12.80
2018,04,26,07,45,12.90
2018,04,26,07,46,13.00
2018,04,26,07,47,13.10
2018,04,26,07,48,13.20
2018,04,26,07,49,13.20
2018,04,26,07,50,13.30
2018,04,26,07,51,13.40
2018,04,26,07,52,13.50
2018,04,26,07,53,13.60
2018,04,26,07,54,13.70
2018,04,26,07,55,13.70
2018,04,26,07,56,13.80
2018,04,26,07,57,13.90
2018,04,26,07,58,14.00
2018,04,26,07,59,14.10
2018,04,26,08,00,14.20
2018,04,26,08,01,14.30
2018,04,26,08,02,14.40
2018,04,26,08,03,14.50
2018,04,26,08,04,14.50
2018,04,26,08,05,14.60
2018,04,26,08,06,14.70
2018,04,26,08,07,14.80
2018,04,26,08,08,15.00
2018,04,26,08,09,15.00
2018,04,26,08,10,15.10
2018,04,26,08,11,15.30
2018,04,26,08,12,15.40
2018,04,26,08,13,15.50
2018,04,26,08,14,15.60
2018,04,26,08,15,15.70
2018,04,26,08,16,15.80
2018,04,26,08,17,16.00
2018,04,26,08,18,16.10
2018,04,26,08,19,16.20
2018,04,26,08,20,16.30
2018,04,26,08,21,16.40
2018,04,26,08,22,16.50
2018,04,26,08,23,16.60
2018,04,26,08,24,16.70
2018,04,26,08,25,16.80
2018,04,26,08,26,16.90
2018,04,26,08,27,17.00
2018,04,26,08,28,17.10
2018,04,26,08,29,17.20
2018,04,26,08,30,17.30
2018,04,26,08,31,17.40
2018,04,26,08,32,17.50
2018,04,26,08,33,17.60
2018,04,26,08,34,17.70
2018,04,26,08,35,17.70
2018,04,26,08,36,17.80
2018,04,26,08,37,17.90
2018,04,26,08,38,17.90
2018,04,26,08,39,18.00
2018,04,26,08,40,18.10
2018,04,26,08,41,18.10
2018,04,26,08,42,18.20
2018,04,26,08,43,18.20
2018,04,26,08,44,18.30
2018,04,26,08,45,18.40
2018,04,26,08,46,18.50
2018,04,26,08,47,18.60
2018,04,26,08,48,18.70
2018,04,26,08,49,18.70
2018,04,26,08,50,18.80
2018,04,26,08,51,18.80
2018,04,26,08,52,18.90
2018,04,26,08,53,18.90
2018,04,26,08,54,18.90
2018,04,26,08,55,19.10
2018,04,26,08,56,19.10
2018,04,26,08,57,19.10
2018,04,26,08,58,19.10
2018,04,26,08,59,19.10
2018,04,26,09,00,19.10
2018,04,26,09,01,19.10
2018,04,26,09,02,19.20
2018,04,26,09,03,19.20
2018,04,26,09,04,19.20
2018,04,26,09,05,19.30
2018,04,26,09,06,19.30
2018,04,26,09,07,19.40
2018,04,26,09,08,19.40
2018,04,26,09,09,19.50
2018,04,26,09,10,19.50
2018,04,26,09,11,19.50
2018,04,26,09,12,19.60
2018,04,26,09,13,19.60
2018,04,26,09,14,19.70
2018,04,26,09,15,19.70
2018,04,26,09,16,19.80
2018,04,26,09,17,19.80
2018,04,26,09,18,19.90
2018,04,26,09,19,19.90
2018,04,26,09,20,19.90
2018,04,26,09,21,19.90
2018,04,26,09,22,19.90
2018,04,26,09,23,19.90
2018,04,26,09,24,19.90
2018,04,26,09,25,20.00
2018,04,26,09,26,20.10
2018,04,26,09,27,20.10
2018,04,26,09,28,20.20
2018,04,26,09,29,20.20
2018,04,26,09,30,20.30
2018,04,26,09,31,20.30
2018,04,26,09,32,20.40
2018,04,26,09,33,20.40
2018,04,26,09,34,20.30
2018,04,26,09,35,20.30
2018,04,26,09,36,20.30
2018,04,26,09,37,20.20
2018,04,26,09,38,20.10
2018,04,26,09,39,20.10
2018,04,26,09,40,20.00
2018,04,26,09,41,19.90
2018,04,26,09,42,20.00
2018,04,26,09,43,19.90
2018,04,26,09,44,19.90
2018,04,26,09,45,19.90
2018,04,26,09,46,19.90
2018,04,26,09,47,20.00
2018,04,26,09,48,20.10
2018,04,26,09,49,20.10
2018,04,26,09,50,20.20
2018,04,26,09,51,20.30
2018,04,26,09,52,20.40
2018,04,26,09,53,20.50
2018,04,26,09,54,20.50
2018,04,26,09,55,20.60
2018,04,26,09,56,20.70
2018,04,26,09,57,20.80
2018,04,26,09,58,20.80
2018,04,26,09,59,20.90
2018,04,26,10,00,21.00
2018,04,26,10,01,21.00
2018,04,26,10,02,21.10
2018,04,26,10,03,21.10
2018,04,26,10,04,21.10
2018,04,26,10,05,21.20
2018,04,26,10,06,21.20
2018,04,26,10,07,21.20
2018,04,26,10,08,21.10
2018,04,26,10,09,21.10
2018,04,26,10,10,21.10
2018,04,26,10,11,21.10
2018,04,26,10,12,21.00
2018,04,26,10,13,21.00
2018,04,26,10,14,20.90
2018,04,26,10,15,20.90
2018,04,26,10,16,20.90
2018,04,26,10,17,20.90
2018,04,26,10,18,20.90
2018,04,26,10,19,21.00
2018,04,26,10,20,20.90
2018,04,26,10,21,20.90
2018,04,26,10,22,21.00
2018,04,26,10,23,21.10
2018,04,26,10,24,21.10
2018,04,26,10,25,21.10
2018,04,26,10,26,21.20
2018,04,26,10,27,21.20
2018,04,26,10,28,21.20
2018,04,26,10,29,21.10
2018,04,26,10,30,21.10
2018,04,26,10,31,21.10
2018,04,26,10,32,21.00
2018,04,26,10,33,20.90
2018,04,26,10,34,20.80
2018,04,26,10,35,20.70
2018,04,26,10,36,20.60
2018,04,26,10,37,20.60
2018,04,26,10,38,20.70
2018,04,26,10,39,20.80
2018,04,26,10,40,20.80
2018,04,26,10,41,20.80
2018,04,26,10,42,20.80
2018,04,26,10,43,20.80
2018,04,26,10,44,20.80
2018,04,26,10,45,20.90
2018,04,26,10,46,20.90
2018,04,26,10,47,20.90
2018,04,26,10,48,21.00
2018,04,26,10,49,21.10
2018,04,26,10,50,21.10
2018,04,26,10,51,21.00
2018,04,26,10,52,21.10
2018,04,26,10,53,21.10
2018,04,26,10,54,21.00
2018,04,26,10,55,21.00
2018,04,26,10,56,21.00
2018,04,26,10,57,21.00
2018,04,26,10,58,21.10
2018,04,26,10,59,21.10
2018,04,26,11,00,21.20
2018,04,26,11,01,21.30
2018,04,26,11,02,21.30
2018,04,26,11,03,21.40
2018,04,26,11,04,21.50
2018,04,26,11,05,21.60
2018,04,26,11,06,21.60
2018,04,26,11,07,21.60
2018,04,26,11,08,21.70
2018,04,26,11,09,21.70
2018,04,26,11,10,21.80
2018,04,26,11,11,21.90
2018,04,26,11,12,21.90
2018,04,26,11,13,22.00
2018,04,26,11,14,22.00
2018,04,26,11,15,22.10
2018,04,26,11,16,22.10
2018,04,26,11,17,22.10
2018,04,26,11,18,22.10
2018,04,26,11,19,22.00
2018,04,26,11,20,22.00
2018,04,26,11,21,22.00
2018,04,26,11,22,22.00
2018,04,26,11,23,21.90
2018,04,26,11,24,21.80
2018,04,26,11,25,21.80
2018,04,26,11,26,21.70
2018,04,26,11,27,21.70
2018,04,26,11,28,21.80
2018,04,26,11,29,21.90
2018,04,26,11,30,21.90
2018,04,26,11,31,22.00
2018,04,26,11,32,22.10
2018,04,26,11,33,22.20
2018,04,26,11,34,22.20
2018,04,26,11,35,22.30
2018,04,26,11,36,22.30
2018,04,26,11,37,22.40
2018,04,26,11,38,22.40
2018,04,26,11,39,22.60
2018,04,26,11,40,22.70
2018,04,26,11,41,22.70
2018,04,26,11,42,22.70
2018,04,26,11,43,22.60
2018,04,26,11,44,22.60
2018,04,26,11,45,22.50
2018,04,26,11,46,22.40
2018,04,26,11,47,22.40
2018,04,26,11,48,22.30
2018,04,26,11,49,22.30
2018,04,26,11,50,22.30
2018,04,26,11,51,22.30
2018,04,26,11,52,22.30
2018,04,26,11,53,22.30
2018,04,26,11,54,22.30
2018,04,26,11,55,22.30
2018,04,26,11,56,22.30
2018,04,26,11,57,22.40
2018,04,26,11,58,22.40
2018,04,26,11,59,22.40
2018,04,26,12,00,22.50
2018,04,26,12,01,22.60
2018,04,26,12,02,22.70
2018,04,26,12,03,22.80
2018,04,26,12,04,22.90
2018,04,26,12,05,22.90
2018,04,26,12,06,23.00
2018,04,26,12,07,23.10
2018,04,26,12,08,23.20
2018,04,26,12,09,23.20
2018,04,26,12,10,23.20
2018,04,26,12,11,23.10
2018,04,26,12,12,23.10
2018,04,26,12,13,23.10
2018,04,26,12,14,23.10
2018,04,26,12,15,23.10
2018,04,26,12,16,23.00
2018,04,26,12,17,23.00
2018,04,26,12,18,23.10
2018,04,26,12,19,23.10
2018,04,26,12,20,23.20
2018,04,26,12,21,23.30
2018,04,26,12,22,23.30
2018,04,26,12,23,23.30
2018,04,26,12,24,23.30
2018,04,26,12,25,23.40
2018,04,26,12,26,23.60
2018,04,26,12,27,23.70
2018,04,26,12,28,23.70
2018,04,26,12,29,23.80
2018,04,26,12,30,23.90
2018,04,26,12,31,23.90
2018,04,26,12,32,23.90
2018,04,26,12,33,23.90
2018,04,26,12,34,23.80
2018,04,26,12,35,23.70
2018,04,26,12,36,23.60
2018,04,26,12,37,23.50
2018,04,26,12,38,23.30
2018,04,26,12,39,23.20
2018,04,26,12,40,23.10
2018,04,26,12,41,23.10
2018,04,26,12,42,23.20
2018,04,26,12,43,23.30
2018,04,26,12,44,23.40
2018,04,26,12,45,23.50
2018,04,26,12,46,23.60
2018,04,26,12,47,23.60
2018,04,26,12,48,23.70
2018,04,26,12,49,23.50
2018,04,26,12,50,23.40
2018,04,26,12,51,23.30
2018,04,26,12,52,23.30
2018,04,26,12,53,23.30
2018,04,26,12,54,23.30
2018,04,26,12,55,23.30
2018,04,26,12,56,23.20
2018,04,26,12,57,23.20
2018,04,26,12,58,23.30
2018,04,26,12,59,23.30
2018,04,26,13,00,23.40
2018,04,26,13,01,23.40
2018,04,26,13,02,23.30
2018,04,26,13,03,23.30
2018,04,26,13,04,23.30
2018,04,26,13,05,23.30
2018,04,26,13,06,23.20
2018,04,26,13,07,23.10
2018,04,26,13,08,23.00
2018,04,26,13,09,22.90
2018,04,26,13,10,22.90
2018,04,26,13,11,22.90
2018,04,26,13,12,23.00
2018,04,26,13,13,23.20
2018,04,26,13,14,23.30
2018,04,26,13,15,23.30
2018,04,26,13,16,23.30
2018,04,26,13,17,23.40
2018,04,26,13,18,23.50
2018,04,26,13,19,23.60
2018,04,26,13,20,23.60
2018,04,26,13,21,23.50
2018,04,26,13,22,23.40
2018,04,26,13,23,23.30
2018,04,26,13,24,23.20
2018,04,26,13,25,23.10
2018,04,26,13,26,22.90
2018,04,26,13,27,22.90
2018,04,26,13,28,23.00
2018,04,26,13,29,23.10
2018,04,26,13,30,23.30
2018,04,26,13,31,23.40
2018,04,26,13,32,23.50
2018,04,26,13,33,23.70
2018,04,26,13,34,23.70
2018,04,26,13,35,23.70
2018,04,26,13,36,23.70
2018,04,26,13,37,23.80
2018,04,26,13,38,23.80
2018,04,26,13,39,23.80
2018,04,26,13,40,23.80
2018,04,26,13,41,23.80
2018,04,26,13,42,23.80
2018,04,26,13,43,23.80
2018,04,26,13,44,23.80
2018,04,26,13,45,23.80
2018,04,26,13,46,24.00
2018,04,26,13,47,24.10
2018,04,26,13,48,24.00
2018,04,26,13,49,23.90
2018,04,26,13,50,24.00
2018,04,26,13,51,24.10
2018,04,26,13,52,24.10
2018,04,26,13,53,23.90
2018,04,26,13,54,23.90
2018,04,26,13,55,23.90
2018,04,26,13,56,23.90
2018,04,26,13,57,24.00
2018,04,26,13,58,24.10
2018,04,26,13,59,23.90
2018,04,26,14,00,23.90
2018,04,26,14,01,23.90
2018,04,26,14,02,23.90
2018,04,26,14,03,23.90
2018,04,26,14,04,23.90
2018,04,26,14,05,23.90
2018,04,26,14,06,23.80
2018,04,26,14,07,23.80
2018,04,26,14,08,23.70
2018,04,26,14,09,23.70
2018,04,26,14,10,23.60
2018,04,26,14,11,23.60
2018,04,26,14,12,23.60
2018,04,26,14,13,23.60
2018,04,26,14,14,23.70
2018,04,26,14,15,23.70
2018,04,26,14,16,23.70
2018,04,26,14,17,23.80
2018,04,26,14,18,23.80
2018,04,26,14,19,23.70
2018,04,26,14,20,23.70
2018,04,26,14,21,23.70
2018,04,26,14,22,23.50
2018,04,26,14,23,23.40
2018,04,26,14,24,23.30
2018,04,26,14,25,23.30
2018,04,26,14,26,23.30
2018,04,26,14,27,23.30
2018,04,26,14,28,23.40
2018,04,26,14,29,23.40
2018,04,26,14,30,23.40
2018,04,26,14,31,23.50
2018,04,26,14,32,23.60
2018,04,26,14,33,23.60
2018,04,26,14,34,23.70
2018,04,26,14,35,23.70
2018,04,26,14,36,23.70
2018,04,26,14,37,23.70
2018,04,26,14,38,23.70
2018,04,26,14,39,23.80
2018,04,26,14,40,23.80
2018,04,26,14,41,23.80
2018,04,26,14,42,23.80
2018,04,26,14,43,23.90
2018,04,26,14,44,24.00
2018,04,26,14,45,24.10
2018,04,26,14,46,24.10
2018,04,26,14,47,24.10
2018,04,26,14,48,24.10
2018,04,26,14,49,24.10
2018,04,26,14,50,24.10
2018,04,26,14,51,24.10
2018,04,26,14,52,24.10
2018,04,26,14,53,24.10
2018,04,26,14,54,24.10
2018,04,26,14,55,24.10
2018,04,26,14,56,24.10
2018,04,26,14,57,24.10
2018,04,26,14,58,24.20
2018,04,26,14,59,24.20
2018,04,26,15,00,24.30
2018,04,26,15,01,24.40
2018,04,26,15,02,24.30
2018,04,26,15,03,24.10
2018,04,26,15,04,24.10
2018,04,26,15,05,24.10
2018,04,26,15,06,24.10
2018,04,26,15,07,24.00
2018,04,26,15,08,23.80
2018,04,26,15,09,23.40
2018,04,26,15,10,23.20
2018,04,26,15,11,23.10
2018,04,26,15,12,23.10
2018,04,26,15,13,23.10
2018,04,26,15,14,23.20
2018,04,26,15,15,23.20
2018,04,26,15,16,23.30
2018,04,26,15,17,23.30
2018,04,26,15,18,23.30
2018,04,26,15,19,23.30
2018,04,26,15,20,23.40
2018,04,26,15,21,23.30
2018,04,26,15,22,23.30
2018,04,26,15,23,23.30
2018,04,26,15,24,23.30
2018,04,26,15,25,23.40
2018,04,26,15,26,23.60
2018,04,26,15,27,23.60
2018,04,26,15,28,23.70
2018,04,26,15,29,23.60
2018,04,26,15,30,23.60
2018,04,26,15,31,23.60
2018,04,26,15,32,23.50
2018,04,26,15,33,23.30
2018,04,26,15,34,23.20
2018,04,26,15,35,23.10
2018,04,26,15,36,22.90
2018,04,26,15,37,22.70
2018,04,26,15,38,22.60
2018,04,26,15,39,22.50
2018,04,26,15,40,22.60
2018,04,26,15,41,22.60
2018,04,26,15,42,22.60
2018,04,26,15,43,22.60
2018,04,26,15,44,22.60
2018,04,26,15,45,22.50
2018,04,26,15,46,22.50
2018,04,26,15,47,22.40
2018,04,26,15,48,22.40
2018,04,26,15,49,22.30
2018,04,26,15,50,22.30
2018,04,26,15,51,22.30
2018,04,26,15,52,22.30
2018,04,26,15,53,22.40
2018,04,26,15,54,22.60
2018,04,26,15,55,22.60
2018,04,26,15,56,22.70
2018,04,26,15,57,22.80
2018,04,26,15,58,22.90
2018,04,26,15,59,22.90
2018,04,26,16,00,22.90
2018,04,26,16,01,23.00
2018,04,26,16,02,23.10
2018,04,26,16,03,23.10
2018,04,26,16,04,23.10
2018,04,26,16,05,23.10
2018,04,26,16,06,23.10
2018,04,26,16,07,23.20
2018,04,26,16,08,23.20
2018,04,26,16,09,23.30
2018,04,26,16,10,23.40
2018,04,26,16,11,23.60
2018,04,26,16,12,23.70
2018,04,26,16,13,23.70
2018,04,26,16,14,23.70
2018,04,26,16,15,23.70
2018,04,26,16,16,23.80
2018,04,26,16,17,23.80
2018,04,26,16,18,23.90
2018,04,26,16,19,23.90
2018,04,26,16,20,23.90
2018,04,26,16,21,24.00
2018,04,26,16,22,24.10
2018,04,26,16,23,24.10
2018,04,26,16,24,24.10
2018,04,26,16,25,24.20
2018,04,26,16,26,24.30
2018,04,26,16,27,24.30
2018,04,26,16,28,24.30
2018,04,26,16,29,24.30
2018,04,26,16,30,24.20
2018,04,26,16,31,24.20
2018,04,26,16,32,24.20
2018,04,26,16,33,24.20
2018,04,26,16,34,24.20
2018,04,26,16,35,24.20
2018,04,26,16,36,24.20
2018,04,26,16,37,24.20
2018,04,26,16,38,24.20
2018,04,26,16,39,24.10
2018,04,26,16,40,24.20
2018,04,26,16,41,24.20
2018,04,26,16,42,24.20
2018,04,26,16,43,24.20
2018,04,26,16,44,24.20
2018,04,26,16,45,24.10
2018,04,26,16,46,24.10
2018,04,26,16,47,24.10
2018,04,26,16,48,24.20
2018,04,26,16,49,24.20
2018,04,26,16,50,24.10
2018,04,26,16,51,24.00
2018,04,26,16,52,23.80
2018,04,26,16,53,23.60
2018,04,26,16,54,23.50
2018,04,26,16,55,23.30
2018,04,26,16,56,23.30
2018,04,26,16,57,23.30
2018,04,26,16,58,23.30
2018,04,26,16,59,23.30
2018,04,26,17,00,23.30
2018,04,26,17,01,23.40
2018,04,26,17,02,23.40
2018,04,26,17,03,23.50
2018,04,26,17,04,23.60
2018,04,26,17,05,23.60
2018,04,26,17,06,23.70
2018,04,26,17,07,23.70
2018,04,26,17,08,23.70
2018,04,26,17,09,23.80
2018,04,26,17,10,23.80
2018,04,26,17,11,23.80
2018,04,26,17,12,23.80
2018,04,26,17,13,23.80
2018,04,26,17,14,23.80
2018,04,26,17,15,23.80
2018,04,26,17,16,23.80
2018,04,26,17,17,23.80
2018,04,26,17,18,23.80
2018,04,26,17,19,23.80
2018,04,26,17,20,23.90
2018,04,26,17,21,23.90
2018,04,26,17,22,24.00
2018,04,26,17,23,24.10
2018,04,26,17,24,24.10
2018,04,26,17,25,24.10
2018,04,26,17,26,24.10
2018,04,26,17,27,24.00
2018,04,26,17,28,23.90
2018,04,26,17,29,23.60
2018,04,26,17,30,23.30
2018,04,26,17,31,23.10
2018,04,26,17,32,22.90
2018,04,26,17,33,22.70
2018,04,26,17,34,22.60
2018,04,26,17,35,22.50
2018,04,26,17,36,22.30
2018,04,26,17,37,22.10
2018,04,26,17,38,22.00